Location: Newark
(52.3500°N, 175.9667°E)
Time: 14:06:03
(UTC+00:00)

Tiros 1 despin weight - All Passes

Search period start: 23 April 2021 00:00
Search period end: 03 May 2021 00:00
Orbit: 593 x 641 km, 48.2° (Epoch: 22 April)

Date Brightness Start Highest point End Pass type
(mag) Time Alt. Az. Time Alt. Az. Time Alt. Az.
23 Apr - 15:52:31 10° S 15:55:40 18° SE 15:58:48 10° ESE visible
23 Apr - 17:32:09 10° SW 17:36:28 41° SSE 17:40:45 10° E daylight
23 Apr - 19:13:13 10° W 19:17:39 50° S 19:22:00 10° ESE daylight
23 Apr - 20:54:44 10° W 20:58:41 30° SSW 21:02:35 10° SE daylight
24 Apr - 16:07:47 10° SSW 16:11:39 26° SSE 16:15:28 10° E visible
24 Apr - 17:48:12 10° WSW 17:52:39 48° S 17:57:01 10° E daylight
24 Apr - 19:29:28 10° W 19:33:49 44° SSW 19:38:06 10° ESE daylight
24 Apr - 21:11:17 10° W 21:14:41 21° SSW 21:18:03 10° SSE daylight
25 Apr - 14:44:37 10° S 14:47:02 14° SE 14:49:27 10° ESE visible
25 Apr - 16:23:29 10° SW 16:27:43 36° SSE 16:31:53 10° E daylight
25 Apr - 18:04:23 10° WSW 18:08:50 51° S 18:13:14 10° ESE daylight
25 Apr - 19:45:47 10° W 19:49:58 35° SSW 19:54:04 10° SE daylight
25 Apr - 21:28:21 10° WSW 21:30:35 14° SW 21:32:50 10° S daylight
26 Apr - 14:59:25 10° SSW 15:02:57 22° SSE 15:06:28 10° E visible
26 Apr - 16:39:26 10° WSW 16:43:51 44° SSE 16:48:12 10° E daylight
26 Apr - 18:20:36 10° W 18:25:02 48° S 18:29:24 10° ESE daylight
26 Apr - 20:02:12 10° W 20:06:01 26° SSW 20:09:46 10° SSE daylight
27 Apr - 13:37:41 10° SSE 13:38:26 10° SE 13:39:11 10° SE visible
27 Apr - 15:14:54 10° SW 15:18:58 30° SSE 15:23:00 10° E visible
27 Apr - 16:55:33 10° WSW 17:00:02 50° S 17:04:27 10° E daylight
27 Apr - 18:36:52 10° W 18:41:12 41° SSW 18:45:27 10° SE daylight
27 Apr - 20:18:54 10° WSW 20:21:59 18° SW 20:25:02 10° S daylight
28 Apr - 13:51:17 10° S 13:54:17 17° SE 13:57:17 10° ESE visible
28 Apr - 15:30:43 10° SW 15:35:04 40° SSE 15:39:22 10° E visible
28 Apr - 17:11:45 10° WSW 17:16:14 51° S 17:20:39 10° ESE daylight
28 Apr - 18:53:13 10° W 18:57:18 32° SSW 19:01:20 10° SE daylight
28 Apr - 20:36:31 10° WSW 20:37:50 11° SW 20:39:10 10° SSW daylight
29 Apr - 14:06:26 10° SSW 14:10:15 25° SSE 14:14:02 10° E visible
29 Apr - 15:46:45 10° WSW 15:51:14 47° S 15:55:39 10° E visible
29 Apr - 17:27:59 10° W 17:32:25 46° S 17:36:46 10° ESE daylight
29 Apr - 19:09:43 10° W 19:13:19 23° SSW 19:16:53 10° SSE daylight
30 Apr - 12:43:31 10° SSE 12:45:39 13° SE 12:47:47 10° ESE visible
30 Apr - 14:22:04 10° SW 14:26:18 34° SSE 14:30:29 10° E visible
30 Apr - 16:02:54 10° WSW 16:07:25 51° S 16:11:52 10° ESE visible
30 Apr - 17:44:17 10° W 17:48:33 38° SSW 17:52:46 10° SE daylight
30 Apr - 19:26:36 10° WSW 19:29:15 15° SW 19:31:52 10° S daylight
01 May - 12:58:08 10° SSW 13:01:33 20° SSE 13:04:57 10° E visible
01 May - 14:37:59 10° WSW 14:42:25 43° SSE 14:46:48 10° E visible
01 May - 16:19:07 10° W 16:23:36 50° S 16:28:02 10° ESE daylight
01 May - 18:00:40 10° W 18:04:38 28° SSW 18:08:31 10° SSE daylight
02 May - 13:13:31 10° SW 13:17:32 29° SSE 13:21:33 10° E visible
02 May - 14:54:04 10° WSW 14:58:35 50° S 15:03:03 10° E visible
02 May - 16:35:22 10° W 16:39:46 43° SSW 16:44:07 10° ESE daylight
02 May - 18:17:17 10° W 18:20:37 20° SSW 18:23:54 10° SSE daylight
